VK2RZ Weather Reports


Display with metric or nautical units.
time (UTC)temp
F
wind
direction
speed
MPH
gust
MPH
rain 1hr
in
rain 24hr
in
rain mn
in
humidity
%
barometer
mb
20260505163044 58 238 6.0 13.0 0.00 0.00 0.00 6 1020.4
20260505162044 58 239 16.0 16.0 0.00 0.00 0.00 6 1020.3
20260505161044 58 233 11.0 11.0 0.00 0.00 0.00 6 1020.3
20260505153044 59 210 9.0 15.0 0.00 0.00 0.00 6 1020.8
20260505152044 59 239 10.0 15.0 0.00 0.00 0.00 6 1020.8
20260505151044 59 252 15.0 16.0 0.00 0.00 0.00 6 1020.8
20260505124044 61 249 6.0 11.0 0.00 0.00 0.00 6 1021.0
20260505123044 61 247 9.0 10.0 0.00 0.00 0.00 6 1021.0
20260505122044 61 266 3.0 4.0 0.00 0.00 0.00 6 1021.0
20260505121044 62 250 9.0 9.0 0.00 0.00 0.00 6 1021.1
20260505120044 62 235 3.0 9.0 0.00 0.00 0.00 6 1021.0
20260505115044 62 168 2.0 3.0 0.00 0.00 0.00 6 1020.9
20260505114044 62 167 1.0 2.0 0.00 0.00 0.00 6 1020.9
20260505113044 63 0 0.0 0.0 0.00 0.00 0.00 6 1020.9
20260505112044 64 0 0.0 0.0 0.00 0.00 0.00 6 1021.0
20260505111044 63 0 0.0 0.0 0.00 0.00 0.00 6 1020.9
20260505102043 63 162 1.0 1.0 0.00 0.00 0.00 6 1020.7
20260505101043 63 0 0.0 0.0 0.00 0.00 0.00 6 1020.7
20260505100043 63 0 0.0 0.0 0.00 0.00 0.00 6 1020.7
20260505095043 63 0 0.0 0.0 0.00 0.00 0.00 6 1020.6
20260505094043 63 0 0.0 0.0 0.00 0.00 0.00 6 1020.5
20260505093043 63 0 0.0 1.0 0.00 0.00 0.00 6 1020.3
20260505092043 63 0 0.0 0.0 0.00 0.00 0.00 6 1020.1
20260505091042 63 0 0.0 0.0 0.00 0.00 0.00 6 1020.0
20260505090042 63 162 1.0 2.0 0.00 0.00 0.00 6 1019.8
20260505085042 63 0 0.0 0.0 0.00 0.00 0.00 6 1019.8
20260505084042 63 0 0.0 0.0 0.00 0.00 0.00 6 1019.6
20260505083042 63 0 0.0 0.0 0.00 0.00 0.00 6 1019.6
20260505082042 64 0 0.0 0.0 0.00 0.00 0.00 6 1019.5
20260505081042 64 0 0.0 0.0 0.00 0.00 0.00 6 1019.4
20260505080041 64 0 0.0 0.0 0.00 0.00 0.00 6 1019.2
20260505075041 64 0 0.0 0.0 0.00 0.00 0.00 6 1019.1
20260505074041 65 162 1.0 1.0 0.00 0.00 0.00 6 1018.7
20260505073041 65 0 0.0 1.0 0.00 0.00 0.00 6 1018.6
20260505072041 65 0 0.0 0.0 0.00 0.00 0.00 6 1018.5
20260505071041 66 143 5.0 5.0 0.00 0.00 0.00 6 1018.4
20260505070040 66 118 3.0 4.0 0.00 0.00 0.00 6 1018.4
20260505065039 66 118 1.0 2.0 0.00 0.00 0.00 6 1018.1
20260505064039 66 0 0.0 1.0 0.00 0.00 0.00 5 1017.9
20260505063039 66 257 2.0 2.0 0.00 0.00 0.00 5 1017.6
20260505062039 67 0 0.0 0.0 0.00 0.00 0.00 5 1017.6
20260505061039 67 257 2.0 2.0 0.00 0.00 0.00 5 1017.5
20260505060039 68 252 3.0 3.0 0.00 0.00 0.00 5 1017.4
20260505055039 68 260 2.0 3.0 0.00 0.00 0.00 5 1017.4
20260505054039 69 0 0.0 1.0 0.00 0.00 0.00 5 1017.4
20260505053039 69 237 1.0 3.0 0.00 0.00 0.00 5 1017.3
20260505052039 70 216 4.0 8.0 0.00 0.00 0.00 4 1017.4
20260505051039 70 263 7.0 7.0 0.00 0.00 0.00 5 1017.4
20260505041039 70 256 8.0 11.0 0.00 0.00 0.00 4 1017.0
20260505040038 70 227 4.0 7.0 0.00 0.00 0.00 5 1016.8
20260505035038 70 249 4.0 8.0 0.00 0.00 0.00 4 1017.0
20260505034038 70 231 5.0 5.0 0.00 0.00 0.00 4 1017.0
20260505033038 70 209 2.0 4.0 0.00 0.00 0.00 5 1017.0
20260505032038 70 240 4.0 11.0 0.00 0.00 0.00 5 1017.2
20260505031038 70 233 2.0 4.0 0.00 0.00 0.00 5 1017.2
20260505030038 69 197 2.0 4.0 0.00 0.00 0.00 5 1017.3
20260505025038 69 195 3.0 6.0 0.00 0.00 0.00 5 1017.2
20260505024038 69 240 6.0 6.0 0.00 0.01 0.00 5 1017.4
20260505023038 69 214 3.0 8.0 0.00 0.01 0.00 5 1017.5
20260505022037 68 204 6.0 8.0 0.00 0.02 0.00 5 1017.5
20260505021037 68 276 7.0 12.0 0.00 0.02 0.00 5 1017.6
20260505020037 68 239 7.0 7.0 0.00 0.03 0.00 5 1017.5
20260505015037 68 228 3.0 6.0 0.00 0.03 0.00 5 1017.8
20260505014037 67 254 9.0 11.0 0.00 0.03 0.00 5 1017.9
20260505013037 67 213 6.0 11.0 0.00 0.03 0.00 5 1018.1
20260505012037 67 222 4.0 4.0 0.00 0.03 0.00 5 1018.1
20260505011037 66 235 2.0 8.0 0.00 0.03 0.00 5 1018.0
20260505010037 66 260 7.0 8.0 0.00 0.03 0.00 5 1018.2
20260505005037 66 236 7.0 7.0 0.00 0.03 0.00 5 1018.4
20260505004037 65 230 3.0 7.0 0.00 0.03 0.00 5 1018.5
20260505003037 65 247 11.0 11.0 0.00 0.03 0.00 5 1018.6
20260505002037 65 234 6.0 9.0 0.00 0.03 0.00 5 1018.6
20260505001037 65 228 11.0 14.0 0.00 0.03 0.00 5 1018.6
20260505000037 65 282 7.0 12.0 0.00 0.03 0.00 5 1018.5
20260504235037 65 229 5.0 12.0 0.00 0.03 0.00 5 1018.7
20260504234037 64 268 4.0 9.0 0.00 0.03 0.00 6 1018.8
20260504233037 64 278 4.0 8.0 0.00 0.03 0.00 6 1018.9
20260504232037 64 307 8.0 10.0 0.00 0.03 0.00 6 1019.1
20260504231037 64 258 1.0 3.0 0.00 0.03 0.00 6 1019.3
20260504230037 64 246 2.0 8.0 0.00 0.03 0.00 6 1019.1
20260504225037 63 237 3.0 5.0 0.00 0.03 0.00 6 1019.0
20260504224037 62 266 4.0 4.0 0.00 0.03 0.00 6 1018.9
20260504223037 61 285 8.0 8.0 0.00 0.03 0.00 6 1018.6
20260504222037 61 344 4.0 5.0 0.00 0.03 0.00 6 1018.8
20260504221037 61 266 1.0 4.0 0.00 0.03 0.00 6 1018.9
20260504220037 60 261 5.0 6.0 0.00 0.03 0.00 6 1018.8
20260504215037 59 262 2.0 5.0 0.00 0.03 0.00 7 1018.4
20260504214037 59 268 4.0 8.0 0.00 0.03 0.00 7 1018.1
20260504213037 58 277 7.0 10.0 0.00 0.03 0.00 7 1018.1
20260504212037 57 275 6.0 8.0 0.00 0.03 0.00 7 1018.2
20260504211037 56 255 2.0 5.0 0.00 0.03 0.00 8 1018.1
20260504210037 56 291 2.0 4.0 0.00 0.03 0.00 8 1017.9
20260504205037 56 292 2.0 2.0 0.00 0.03 0.00 8 1017.6
20260504204037 56 302 3.0 3.0 0.00 0.03 0.00 8 1017.6
20260504203037 56 272 2.0 2.0 0.00 0.03 0.00 8 1017.4
20260504202037 57 267 1.0 2.0 0.00 0.03 0.00 8 1017.3
20260504201037 57 264 2.0 3.0 0.00 0.03 0.00 8 1017.2
20260504200037 58 239 3.0 4.0 0.00 0.03 0.00 8 1017.1
20260504195037 58 244 5.0 6.0 0.00 0.03 0.00 8 1016.9
20260504194037 58 255 3.0 5.0 0.00 0.03 0.00 8 1016.8
20260504193037 58 262 2.0 3.0 0.00 0.03 0.00 8 1016.7
20260504192037 59 244 3.0 5.0 0.00 0.03 0.00 7 1016.7
20260504191037 59 251 5.0 8.0 0.00 0.03 0.00 7 1016.7
20260504190036 59 247 4.0 8.0 0.00 0.03 0.00 7 1016.7
20260504185036 59 243 2.0 4.0 0.00 0.03 0.00 7 1016.6
20260504184036 59 255 2.0 3.0 0.00 0.03 0.00 7 1016.4
20260504183036 59 246 1.0 5.0 0.00 0.03 0.00 7 1016.2
20260504182036 59 249 3.0 5.0 0.00 0.03 0.00 7 1016.2
20260504181036 59 248 2.0 4.0 0.00 0.03 0.00 7 1016.0
20260504180036 60 253 4.0 4.0 0.00 0.03 0.00 7 1016.0
20260504175036 60 260 5.0 7.0 0.00 0.03 0.00 7 1015.9
20260504174036 60 247 4.0 9.0 0.00 0.03 0.00 7 1015.9
20260504173036 60 231 3.0 8.0 0.00 0.03 0.00 7 1016.0
20260504172036 61 241 2.0 4.0 0.00 0.03 0.00 7 1016.1
20260504171036 61 259 7.0 7.0 0.00 0.03 0.00 7 1016.3